Simultaneous Nadir Overpasses (SNOs) Predictions

Prediction of SNOs between GOES-17 and NPP Satellite Orbit:

Table of predicted SNOs for the next 14.0 days since TLE Epoch: 6/29/2024
Index Date Time (GOES-17) GOES-17 Lat,Lon NPP Lat,Lon Distance(km) Time Diff (sec)
1 06/29/2024 08:11:16 0.02,-104.71 -0.60,-102.01 307.83 80
2 06/30/2024 20:33:14 -0.01,-104.72 -0.61,-107.32 296.76 80
3 07/01/2024 20:17:11 0.02,-104.72 0.44,-102.80 218.37 80
4 07/03/2024 08:39:02 -0.02,-104.71 0.73,-108.08 383.89 80
5 07/04/2024 08:17:38 -0.02,-104.71 -0.27,-103.56 131.78 80
6 07/05/2024 20:39:37 0.02,-104.72 -0.92,-108.87 473.02 80
7 07/06/2024 20:23:33 0.02,-104.72 0.07,-104.34 43.06 80
8 07/09/2024 08:26:40 -0.01,-104.73 0.08,-105.10 42.28 80
9 07/10/2024 08:05:16 -0.00,-104.73 -0.93,-100.57 474.12 80
10 07/11/2024 20:27:15 -0.00,-104.75 -0.25,-105.89 129.76 80
11 07/12/2024 20:11:11 -0.01,-104.75 0.76,-101.36 386.85 80
